#timestamp,LO_Frequency,Hit 
1504429215.5,286046982.7,N
1504429235.3,286046977.7,N
1504429255.1,286046977.7,N
1504429275.9,286046978.5,N
1504429295.7,286046976.9,N
1504429315.5,286046975.0,N
1504429335.4,286046971.6,N
1504429355.2,286046978.5,N
1504429375.0,286046983.0,N
1504429375.9,286046983.0,N
1504429395.8,286046982.2,P
1504429415.6,286046994.6,P
1504429435.4,286046992.4,N
1504429455.3,286046990.2,N
1504429475.1,286046987.9,N
1504429476.0,286046987.9,N
1504429495.8,286046986.1,P
1504429515.7,286046999.1,N
1504429535.5,286047000.4,N
1504429555.3,286046999.5,N
1504429575.2,286046998.2,N
1504429595.9,286047002.6,N
1504429615.7,286047005.1,N
1504429635.6,286047004.7,N
1504429655.4,286047005.5,N
1504429675.2,286047007.0,N
1504429695.0,286047003.0,N
1504429695.9,286047003.0,N
1504429715.8,286047003.4,N
1504429735.6,286047001.7,N
1504429755.4,286047006.2,N
1504429775.3,286047003.5,N
1504429795.1,286047002.8,N
1504429815.8,286046997.1,N
1504429835.7,286046992.5,N
1504429855.5,286046991.4,N
1504429875.3,286046990.2,N
1504429895.2,286046990.7,N
1504429915.9,286046992.3,N
1504429935.7,286046994.8,N
1504429955.6,286046998.0,N
1504429975.4,286046995.4,N
1504429995.2,286046998.7,N
1504430015.0,286046997.0,N
1504430015.9,286046997.0,N
1504430035.8,286046998.6,N
1504430055.6,286047001.1,N
1504430075.4,286047002.8,N
1504430095.3,286047001.7,N
1504430115.1,286047002.5,N
1504430135.8,286047003.7,N
1504430155.7,286047003.3,N
1504430175.5,286047003.7,N
1504430195.3,286047005.9,N
1504430215.2,286047003.5,N
1504430235.9,286047002.2,N
1504430255.7,286047005.2,N
1504430275.6,286047005.9,N
1504430295.4,286047001.3,N
1504430315.2,286047001.4,N
1504430335.0,286047004.1,N
1504430336.0,286047004.1,N
1504430355.8,286047001.6,N
1504430375.6,286047002.9,N
1504430395.4,286047001.8,N
1504430415.3,286047002.7,N
1504430435.1,286046998.3,N
1504430455.8,286046996.9,N
1504430475.7,286046997.0,N
1504430495.5,286046997.6,N
1504430515.3,286046999.2,N
1504430535.2,286046996.8,N
1504430555.9,286046993.6,N
1504430575.7,286046993.8,N
1504430595.6,286046992.5,N
1504430615.4,286046990.6,N
1504430635.2,286046987.7,P
1504430655.1,286046986.5,N
1504430656.0,286046986.5,N
1504430675.8,286046984.2,N
1504430695.6,286046986.4,N
1504430715.5,286046986.9,N
1504430735.3,286046986.6,N
1504430755.1,286046985.2,P
1504430775.9,286046997.9,N
1504430795.7,286046995.5,N
1504430815.5,286046999.7,N
1504430835.4,286047000.0,N
1504430855.2,286046999.2,N
1504430875.0,286046997.6,N
1504430875.9,286046997.6,N
1504430895.7,286046995.8,N
1504430915.6,286046995.8,N
1504430935.4,286046998.0,N
1504430955.2,286047002.3,N
1504430975.1,286047005.1,N
1504430976.0,286047005.1,N
1504430995.8,286047003.1,N
1504431015.6,286047002.7,N
1504431035.5,286046998.2,N
1504431055.3,286046999.2,N
1504431075.1,286046995.0,N
1504431095.9,286046997.9,N
1504431115.7,286047006.7,N
1504431135.5,286047006.7,N
1504431155.4,286047002.8,N
1504431175.2,286046999.5,N
1504431195.0,286047000.4,N
1504431195.9,286047000.4,N
1504431215.8,286047003.6,N
1504431235.6,286046998.8,N
1504431255.4,286046996.9,N
1504431275.2,286046995.5,N
1504431295.1,286046992.1,N
1504431296.0,286046992.1,N
1504431315.8,286046992.2,N
1504431335.6,286046993.1,N
1504431355.5,286046996.2,N
1504431375.3,286046995.9,N
1504431395.1,286046991.5,N
1504431415.9,286046988.5,N
1504431435.7,286046990.2,N
1504431455.5,286046994.0,N
1504431475.4,286046991.7,N
1504431495.2,286046990.2,N
1504431515.0,286046991.0,N
1504431515.9,286046991.0,N
1504431535.8,286046990.9,N
1504431555.6,286046990.9,N
1504431575.4,286046988.9,N
1504431595.3,286046988.0,N
1504431615.1,286046985.7,N
1504431616.0,286046985.7,N
1504431635.8,286046987.3,N
1504431655.6,286046988.8,N
1504431675.5,286046991.1,N
1504431695.3,286046985.8,P
1504431715.2,286046994.9,N
1504431735.9,286046997.8,N
1504431755.7,286046993.9,N
1504431775.5,286046990.1,N
1504431795.4,286046990.2,N
1504431815.2,286046994.4,N
1504431835.0,286046993.9,N
1504431835.9,286046993.9,N
1504431855.8,286046992.7,N
1504431875.6,286046988.8,P
1504431895.4,286046999.4,N
1504431915.3,286047000.4,N
1504431935.1,286046996.7,N
1504431955.8,286046997.3,N
1504431975.7,286046997.9,N
1504431995.5,286046997.9,N
1504432015.3,286046999.1,N
1504432035.2,286047001.9,N
1504432055.9,286047004.0,N
1504432075.7,286047002.8,N
1504432095.6,286047004.3,N
1504432115.4,286047001.5,N
1504432135.2,286047002.7,N
1504432155.0,286046998.2,N
1504432156.0,286046998.2,N
1504432175.8,286046994.9,N
1504432195.6,286046996.8,N
1504432215.4,286046995.4,N
1504432235.3,286046996.9,N
1504432255.1,286046995.3,N
1504432275.8,286046997.8,N
1504432295.7,286047001.1,N
1504432315.5,286046998.2,N
1504432335.3,286046995.3,N
1504432355.2,286046994.3,N
1504432375.9,286046994.5,N
1504432395.7,286046995.9,N
1504432415.6,286046991.8,N
1504432435.4,286046992.0,N
1504432455.2,286046993.5,N
1504432475.0,286046990.3,N
1504432475.9,286046990.3,N
1504432495.8,286046993.1,N
1504432515.6,286046994.4,N
1504432535.4,286046992.0,N
1504432555.3,286046990.8,N
1504432575.1,286046992.8,N
1504432595.8,286046989.6,N
1504432615.7,286046991.4,N
1504432635.5,286046991.6,N
1504432655.3,286046989.2,N
1504432675.2,286046991.1,N
1504432695.9,286046987.1,P
1504432715.7,286046993.9,N
1504432735.6,286046994.1,N
1504432755.4,286046996.6,N
1504432775.2,286046997.4,N
1504432795.1,286046997.8,N
1504432796.0,286046997.8,N
